Location: Shannon
(40.5500°S, 175.4167°E)
Time: 08:43:33
(UTC+00:00)

Cosmos 1500 Rocket - Pass Details

Date: 17 November 2025
Orbit: 595 x 624 km, 82.5° (Epoch: 14 December)

Event Time Altitude Azimuth Distance (km) Brightness Sun altitude
Exits shadow 13:59:05 37° 236° (WSW) 956 4.5 -24.5°
Drops below altitude 10° 14:02:39 10° 187° (S) 1,998 6.8 -24.2°
Sets 14:05:01 0° 180° (S) 2,917 7.9 -24.0°
